Location: Cudham
(51.3000°N, 0.0667°E)
Time: 05:43:38
(UTC+00:00)

ATLAS 3B R/B - Pass Details

Date: 19 May 2025
Orbit: 935 x 1258 km, 63.8° (Epoch: 13 June)

Event Time Altitude Azimuth Distance (km) Brightness Sun altitude
Exits shadow 21:30:07 14° 129° (SE) 2,832 4.3 -11.9°
Maximum altitude 21:32:59 17° 103° (ESE) 2,656 4.4 -12.1°
Drops below altitude 10° 21:37:28 10° 67° (ENE) 3,197 5.1 -12.5°
Sets 21:41:26 0° 49° (NE) 4,200 5.9 -12.8°
